Date String (YYYY-MM-DD hh:mm:ss) UTC,Instrument flags,Ambient pressure (hPa),Sample flow (lpm),Bypass flow (lpm),Sample temperature (°C),Ambient temperature (°C),ASC tube jacket temperature (°C),LED temperature (°C),Box temperature (°C),Sample RH (%),Span deviation,Mass concentration (μg/m³),Mass concentration (μg/m³),Mass concentration (μg/m³)
DateTimeUTC,F1_M11,P_M11,Q1_M11,Q2_M11,T1_M11,T2_M11,T3_M11,T4_M11,T5_M11,U1_M11,ZSPAN_M11,X0_M11,X2_M11,X1_M11
2022-08-29 16:00:00,,0830.4,4.99,0.00,29.8,27.4,00.0,38.5,31.5,24.1,0000.0,0018.11,0006.95,0005.56
2022-08-29 16:01:00,,0830.4,5.00,0.00,29.8,27.7,00.0,38.5,31.5,24.4,0000.0,0017.32,0006.95,0005.56
2022-08-29 16:02:00,,0830.5,5.00,0.00,29.8,27.9,00.0,38.5,31.5,24.4,0000.0,0018.04,0006.97,0005.57
2022-08-29 16:03:00,,0830.4,5.00,0.00,29.8,28.2,00.0,38.5,31.6,24.1,0000.0,0019.46,0006.95,0005.58
2022-08-29 16:04:00,,0830.4,5.01,0.00,29.8,28.4,00.0,38.5,31.7,24.4,0000.0,0019.17,0006.93,0005.59
2022-08-29 16:05:00,,0830.5,5.01,0.00,29.8,28.5,00.0,38.5,31.7,24.6,0000.0,0019.07,0006.88,0005.59
2022-08-29 16:06:00,,0830.4,4.98,0.00,29.8,28.7,00.0,38.5,31.7,25.0,0000.0,0019.67,0006.86,0005.59
2022-08-29 16:07:00,,0830.4,5.00,0.00,29.9,28.8,00.0,38.6,31.8,24.1,0000.0,0018.74,0006.83,0005.59
2022-08-29 16:08:00,,0830.4,5.01,0.00,29.9,28.9,00.0,38.6,31.8,22.6,0000.0,0017.98,0006.77,0005.58
2022-08-29 16:09:00,,0830.4,5.00,0.00,29.9,28.9,00.0,38.6,31.9,22.7,0000.0,0017.91,0006.72,0005.56
2022-08-29 16:10:00,,0830.4,5.00,0.00,30.0,28.0,00.0,38.6,31.8,22.9,0000.0,0017.80,0006.65,0005.55
2022-08-29 16:11:00,,0830.4,5.01,0.00,29.9,26.9,00.0,38.6,31.7,22.7,0000.0,0017.27,0006.60,0005.53
2022-08-29 16:12:00,,0830.5,5.00,0.00,29.9,26.9,00.0,38.5,31.7,23.0,0000.0,0017.35,0006.56,0005.52
2022-08-29 16:13:00,,0830.4,4.99,0.00,29.8,27.1,00.0,38.5,31.5,22.9,0000.0,0017.00,0006.50,0005.48
2022-08-29 16:14:00,,0830.4,5.00,0.00,29.8,27.4,00.0,38.5,31.5,22.7,0000.0,0015.74,0006.53,0005.44
2022-08-29 16:15:00,,0830.4,5.01,0.00,29.7,27.7,00.0,38.5,31.5,22.3,0000.0,0016.15,0006.49,0005.39
2022-08-29 16:16:00,,0830.4,4.99,0.00,29.7,28.0,00.0,38.5,31.6,22.3,0000.0,0016.48,0006.41,0005.34
2022-08-29 16:17:00,,0830.4,5.00,0.00,29.8,28.2,00.0,38.5,31.6,23.2,0000.0,0016.95,0006.37,0005.30
2022-08-29 16:18:00,,0830.4,5.00,0.00,29.8,28.4,00.0,38.5,31.7,23.7,0000.0,0017.16,0006.36,0005.28
2022-08-29 16:19:00,,0830.4,4.99,0.00,29.8,28.5,00.0,38.5,31.7,24.0,0000.0,0018.87,0006.36,0005.26
2022-08-29 16:20:00,,0830.4,4.99,0.00,29.8,28.7,00.0,38.5,31.7,23.7,0000.0,0019.32,0006.38,0005.25
2022-08-29 16:21:00,,0830.5,5.00,0.00,29.8,28.7,00.0,38.5,31.8,23.1,0000.0,0019.23,0006.39,0005.22
2022-08-29 16:22:00,,0830.4,5.00,0.00,29.9,28.8,00.0,38.5,31.8,23.3,0000.0,0019.12,0006.38,0005.20
2022-08-29 16:23:00,,0830.5,5.00,0.00,29.9,28.4,00.0,38.6,31.8,22.8,0000.0,0018.83,0006.36,0005.19
2022-08-29 16:24:00,,0830.5,5.00,0.00,29.9,27.2,00.0,38.5,31.7,23.6,0000.0,0018.47,0006.39,0005.20
2022-08-29 16:25:00,,0830.5,5.00,0.00,29.8,26.8,00.0,38.5,31.6,24.1,0000.0,0018.39,0006.34,0005.21
2022-08-29 16:26:00,,0830.5,5.00,0.00,29.8,27.0,00.0,38.4,31.5,23.7,0000.0,0017.97,0006.33,0005.24
2022-08-29 16:27:00,,0830.6,5.01,0.00,29.7,27.3,00.0,38.4,31.4,23.5,0000.0,0018.59,0006.41,0005.25
2022-08-29 16:28:00,,0830.6,5.01,0.00,29.7,27.6,00.0,38.4,31.5,23.9,0000.0,0018.32,0006.51,0005.27
2022-08-29 16:29:00,,0830.6,5.00,0.00,29.7,27.9,00.0,38.4,31.5,23.6,0000.4,0019.34,0006.57,0005.28
2022-08-29 16:30:00,,0830.6,5.00,0.00,29.7,28.1,00.0,38.4,31.5,23.0,0000.4,0017.50,0006.57,0005.28
2022-08-29 16:31:00,,0830.6,5.00,0.00,29.7,28.3,00.0,38.4,31.6,22.7,0000.0,0017.17,0006.62,0005.28
2022-08-29 16:32:00,,0830.6,5.00,0.00,29.8,28.4,00.0,38.4,31.6,23.0,0000.0,0018.40,0006.70,0005.28
2022-08-29 16:33:00,,0830.6,4.98,0.00,29.8,28.6,00.0,38.5,31.7,23.3,0000.0,0019.12,0006.75,0005.30
2022-08-29 16:34:00,,0830.6,5.00,0.00,29.8,28.7,00.0,38.5,31.7,23.3,0000.0,0019.33,0006.79,0005.31
2022-08-29 16:35:00,,0830.6,5.00,0.00,29.8,28.8,00.0,38.5,31.7,23.3,0000.0,0020.04,0006.77,0005.32
2022-08-29 16:36:00,,0830.6,5.00,0.00,29.9,28.1,00.0,38.5,31.8,23.2,0000.0,0019.97,0006.74,0005.33
2022-08-29 16:37:00,,0830.6,5.01,0.00,29.8,26.9,00.0,38.5,31.6,23.3,0000.0,0019.71,0006.74,0005.32
2022-08-29 16:38:00,,0830.6,5.00,0.00,29.8,26.8,00.0,38.4,31.6,23.3,0000.0,0018.90,0006.72,0005.33
2022-08-29 16:39:00,,0830.6,5.00,0.00,29.7,27.0,00.0,38.4,31.4,23.3,0000.0,0018.91,0006.70,0005.33
2022-08-29 16:40:00,,0830.7,5.01,0.00,29.7,27.3,00.0,38.4,31.4,23.6,0000.0,0017.98,0006.69,0005.34
2022-08-29 16:41:00,,0830.7,5.01,0.00,29.7,27.6,00.0,38.4,31.4,23.9,0000.0,0018.79,0006.69,0005.35
2022-08-29 16:42:00,,0830.7,5.00,0.00,29.7,27.9,00.0,38.4,31.5,23.9,0000.2,0019.42,0006.67,0005.37
2022-08-29 16:43:00,,0830.7,5.00,0.00,29.7,28.1,00.0,38.4,31.5,23.8,0001.0,0018.10,0006.69,0005.41
2022-08-29 16:44:00,,0830.7,5.00,0.00,29.7,28.3,00.0,38.4,31.6,23.3,0001.0,0017.93,0006.76,0005.45
2022-08-29 16:45:00,,0830.7,5.01,0.00,29.7,28.4,00.0,38.4,31.6,23.4,0000.5,0018.03,0006.81,0005.49
2022-08-29 16:46:00,,0830.7,5.00,0.00,29.7,28.6,00.0,38.4,31.7,23.9,0000.9,0017.51,0006.91,0005.51
2022-08-29 16:47:00,,0830.8,4.98,0.00,29.8,28.7,00.0,38.4,31.7,23.5,0000.3,0017.83,0007.01,0005.53
2022-08-29 16:48:00,,0830.8,5.00,0.00,29.8,28.7,00.0,38.5,31.7,23.2,0000.2,0017.96,0007.06,0005.57
2022-08-29 16:49:00,,0830.7,5.01,0.00,29.8,27.8,00.0,38.4,31.7,23.3,0000.9,0018.14,0007.10,0005.61
2022-08-29 16:50:00,,0830.8,5.00,0.00,29.8,26.8,00.0,38.4,31.5,23.5,0000.4,0018.94,0007.10,0005.63
2022-08-29 16:51:00,,0830.8,4.99,0.00,29.7,26.7,00.0,38.4,31.5,23.7,0000.6,0018.83,0007.08,0005.65
2022-08-29 16:52:00,,0830.8,5.01,0.00,29.7,27.0,00.0,38.3,31.4,23.4,0000.1,0019.98,0007.15,0005.68
2022-08-29 16:53:00,,0830.8,4.99,0.00,29.6,27.3,00.0,38.3,31.4,22.9,0000.9,0020.97,0007.19,0005.70
2022-08-29 16:54:00,,0830.7,5.00,0.00,29.6,27.6,00.0,38.3,31.4,23.4,0001.2,0021.06,0007.14,0005.69
2022-08-29 16:55:00,,0830.9,5.01,0.00,29.6,27.9,00.0,38.3,31.4,23.9,0001.2,0020.48,0007.13,0005.69
2022-08-29 16:56:00,,0830.9,5.00,0.00,29.6,28.1,00.0,38.3,31.5,24.0,0001.0,0020.23,0007.13,0005.69
2022-08-29 16:57:00,,0830.9,5.00,0.00,29.6,28.3,00.0,38.3,31.5,24.1,0000.0,0019.93,0007.08,0005.69
2022-08-29 16:58:00,,0830.9,5.00,0.00,29.7,28.4,00.0,38.4,31.6,24.3,0000.0,0020.31,0007.10,0005.70
2022-08-29 16:59:00,,0830.9,5.00,0.00,29.7,28.5,00.0,38.4,31.6,24.3,0000.0,0023.33,0007.13,0005.70
